Regional Weather Roundup
Issued by NWS San Diego, CA

Home | Current Version | Previous Version | Text Only | Print | Product List | Glossary On
Versions: 1 2 3 4 5 6 7 8 9 10 11 12 13 14 15 16 17 18 19 20 21 22 23 24 25 26 27
000
ASUS46 KSGX 240011
RWRSGX

SAN DIEGO HOURLY WEATHER ROUNDUP
NATIONAL WEATHER SERVICE SAN DIEGO CA
500 PM PDT THU MAR 23 2017

NOTE: "FAIR" INDICATES FEW OR NO CLOUDS BELOW 12,000 FEET WITH NO
SIGNIFICANT WEATHER AND/OR OBSTRUCTIONS TO VISIBILITY.

CAZ042-043-060-061-PZZ750-775-240100-

GREATER SAN DIEGO AREA

CITY           SKY/WX    TMP DP  RH WIND       PRES   REMARKS
SAN DIEGO AP   MOSUNNY   63  42  46 W10       30.17S
NATIONAL CITY    N/A     64  50  61 W3        30.17S
CHULA VISTA      N/A     62  51  66 W6        30.08S
IMPERIAL BEACH MOSUNNY   62  47  57 W12       30.17S
BROWN FIELD    MOSUNNY   60  46  59 W8        30.15S
MIRAMAR MCAS   MOSUNNY   65  45  48 W12       30.15R
MONTGOMERY FLD MOSUNNY   61  44  53 SW13      30.15S

$$

NORTH SAN DIEGO COUNTY

CITY           SKY/WX    TMP DP  RH WIND       PRES   REMARKS
CAMP PENDLETON MOSUNNY   62  49  62 VRB7      30.14S
OCEANSIDE AP   SUNNY     63  52  67 VRB7      30.14S
OCEANSIDE HBR    N/A     61  52  73 NW5       30.17S
VISTA            N/A     62  49  62 W3        30.12S
CARLSBAD       SUNNY     61  49  64 W8        30.14S
DEL MAR          N/A     61  52  72 W1        30.17S
LA JOLLA SCRIP   N/A     60  51  72 SW8       30.16R
FALLBROOK        N/A     63  49  61 SW2       30.11S
ESCONDIDO        N/A     63  44  50 SW8       30.15S
SAN MARCOS       N/A     60  46  59 SW8       30.16R
POWAY            N/A     65  46  50 CALM      30.16S

$$

EAST SAN DIEGO COUNTY

CITY           SKY/WX    TMP DP  RH WIND       PRES   REMARKS
RAMONA         MOSUNNY   60  43  53 W9        30.13S
SANTEE LAKES     N/A     64  46  51 SW3       30.13S
LA MESA          N/A     62  47  56 W3        30.08S
JAMUL            N/A     60  48  64 CALM      30.15R
DESCANSO N       N/A     50  41  70 SW8       30.11R
CAMPO            N/A     55  43  63 SW13      30.08S

$$

ORANGE COUNTY AND THE LOS ANGELES BASIN

CITY           SKY/WX    TMP DP  RH WIND       PRES   REMARKS
JOHN WAYNE AP  MOSUNNY   64  40  41 W8G16     30.13R
LAGUNA BEACH     N/A     64  50  61 W7        30.10R
LAKE FOREST FR   N/A     64  38  37 SW7       30.03R
HUNTINGTON BCH   N/A     64  51  63 W15       30.14S
LOS ALAMITOS   SUNNY     64  42  45 SW12      30.12R
FULLERTON      SUNNY     65  39  38 S12       30.11R
LONG BEACH     SUNNY     67  38  34 W13       30.11S
L.A. AP        MOSUNNY   62  50  64 W20       30.11S
L.A. DOWNTOWN  SUNNY     66  39  37 VRB5      30.11R

$$

THE INLAND EMPIRE

CITY           SKY/WX    TMP DP  RH WIND       PRES   REMARKS
CORONA         SUNNY     66  42  41 W14G20    30.11R
CHINO          MOSUNNY   66  43  43 SW17G24   30.11R
ONTARIO        MOSUNNY   65  40  39 SW17      30.09S
SAN BERNARDINO MOSUNNY   68  36  30 SW9       30.09
RIVERSIDE AP   SUNNY     66  42  41 W10       30.09S
MORENO VALLEY    N/A     68  45  43 SE2       28.20S
MARCH ARB      SUNNY     65  40  39 NW7       30.09R
HORSETHIEF CYN   N/A     65  38  37 CALM      30.11R
PERRIS           N/A     65  47  53 S7        30.09F
HEMET EAST       N/A     61  38  41 W8        30.17R
FRENCH VALLEY  FAIR      61  39  44 S12G17    30.12R
TEMECULA         N/A     62  46  56 SW9       30.14R

$$

SAN BERNARDINO AND RIVERSIDE COUNTY MOUNTAINS

CITY           SKY/WX    TMP DP  RH WIND       PRES   REMARKS
BIG BEAR AP    SUNNY     45  16  31 W10G17    30.12R
ANGELUS OAKS     N/A     45  36  71 CALM      30.10R
PINE COVE        N/A     40  37  90 NW2       30.18R

$$

SOUTHERN DESERT INCLUDING THE COACHELLA VALLEY

CITY           SKY/WX    TMP DP  RH WIND       PRES   REMARKS
PALM SPRINGS   SUNNY     77  36  22 NW21G26   30.00F
PALM DESERT      N/A     78  39  24 N5        29.21R
THERMAL        SUNNY     79  31  17 NW7       29.95F
BLYTHE         SUNNY     77  27  15 N7        29.96F
IMPERIAL AP    SUNNY     76  38  25 W12G22    29.99S
EL CENTRO NAS  MOSUNNY   75  33  21 W12       30.01S
YUMA AZ        SUNNY     75  32  20 NW9       29.99
MEXICALI       SUNNY     77  30  18 W12       30.00F

$$

UPPER DESERT

CITY           SKY/WX    TMP DP  RH WIND       PRES   REMARKS
VICTORVILLE AP SUNNY     63  18  17 W13G18    30.08S
HESPERIA         N/A     61  39  44 SW7       30.21S
PALMDALE       SUNNY     63  28  26 W15       30.09R
LANCASTER      SUNNY     59  30  33 W28G35    30.09S
EDWARDS AFB    MOSUNNY   61  29  29 W22       30.06R
DAGGETT        SUNNY     68  23  18 W20G28    30.02S
29 PALMS N     SUNNY     69  20  15 W21G26    30.07F
NEEDLES        SUNNY     74  30  19 E3        29.94F

$$

REGIONAL REPORTS

CITY           SKY/WX    TMP DP  RH WIND       PRES   REMARKS
SANTA BARBARA  SUNNY     64  49  57 W23       30.08S
SANDBERG       SUNNY     49  33  54 VRB6G16   30.15S
LAS VEGAS NV   MOSUNNY   70  22  16 NW16G23   29.92F
PHOENIX AZ     PTSUNNY   70  33  25 W23G29    29.96S
TIJUANA        MOSUNNY   61  43  51 W7        30.18S
ENSENADA NW      N/A     62  32  31 W9        30.16S

$$

OFFSHORE ISLANDS

CITY           SKY/WX    TMP DP  RH WIND       PRES   REMARKS
CATALINA ARPT  SUNNY     56  45  66 W12       30.13F
SAN CLEMENTE I MOSUNNY   60  48  64 NW16      30.16F
SAN NICOLAS IS MOSUNNY   56  47  71 W29G38    30.13F

$$

MARINE AND OFFSHORE BUOY REPORTS

STATION/POSITION SKY/WX   TEMP    WIND        PRES    VSBY  SWELL
                          AIR SEA DIR/SP/G                  HT/PER/DIR
                          (F)     (DEG/KT/KT) (MB)    (MI)  (FT/S/D)
TANNER BANKS               57 59  300/ 17/ 21 1022.2R         8/210/16
S CLEMENTE BASIN           57 60  290/ 16/ 17 1021.2F         7/290/ 8
SAN NICOLAS IS.               56                N/A           7/200/17
SO. S. ROSA ISLA           55 57  300/ 25/ 29 1021.3S         7/280/10
W. S. BARBARA CH           56 57  320/ 23/ 29 1021.5F         7/290/11
M. S. BARBARA CH                                N/A           5/260/11
S. MONICA BASIN            58 59  280/ 12/ 14 1019.8F         7/240/15
S PEDRO CHANNEL               59                N/A           3/280/11
CMP PENDLETON NS              61                N/A           3/200/17
OCEANSIDE OFFSHR              61                N/A           3/180/17
TORREY PINES OTR              62                N/A           3/280/12
POINT LOMA SOUTH              62                N/A           5/220/15

$$





USA.gov is the U.S. government's official web portal to all federal, state and local government web resources and services.